Location: Санкт-Петербург
(59.9358°N, 30.3401°E)
Time: 18:30:46
(UTC+03:00)

ISS - Pass Details

Date: 26 January 2021
Orbit: 417 x 422 km, 51.6° (Epoch: 18 May)

Event Time Altitude Azimuth Distance (km) Brightness Sun altitude
Rises 20:33:16 0° 253° (WSW) 2,376 1.1 -26.2°
Reaches altitude 10° 20:35:43 10° 235° (SW) 1,512 -0.4 -26.5°
Enters shadow 20:36:32 14° 224° (SW) 1,288 -0.9 -26.6°
